Squaw Valley, USA 16 day weather forecast

Slopes altitude range 1890 m - 2760m

Number of lifts: 27 Pistes: 100km

In some cases the lift and piste totals shown are for the ski domain (e.g. Three Valleys) rather than individual resort (e.g. Courchevel)

Overview

The 16 day weather forecast is fully updated 4 times every day.

    • Sun 17 FEB 2019
    • Sun 17
    • -8C -7C
    • Mon 18 FEB 2019
    • Mon 18
    • -13C -9C
    • Tue 19 FEB 2019
    • Tue 19
    • -15C -14C
    • Wed 20 FEB 2019
    • Wed 20
    • -8C -5C
    • Thu 21 FEB 2019
    • Thu 21
    • -14C -12C
    • Fri 22 FEB 2019
    • Fri 22
    • -14C -11C
    • Sat 23 FEB 2019
    • Sat 23
    • -6C -4C
    • Sun 24 FEB 2019
    • Sun 24
    • -4C -3C
    • Mon 25 FEB 2019
    • Mon 25
    • -10C -6C
    • Tue 26 FEB 2019
    • Tue 26
    • -12C -11C
    • Wed 27 FEB 2019
    • Wed 27
    • -15C -4C
    • Thu 28 FEB 2019
    • Thu 28
    • -11C -6C
    • Fri 01 MAR 2019
    • Fri 01
    • -9C -5C
    • Sat 02 MAR 2019
    • Sat 02
    • -9C 1C
    • Sun 03 MAR 2019
    • Sun 03
    • -11C -1C
    • Mon 04 MAR 2019
    • Mon 04
    • -10C -5C

Date:

Time Type 0°C level Temp Chill Snow Cloud Speed Gust Dir Press
12:00 871m -7°C -7_8 1cm 93% 8mph 17mph 1018mB
15:00 747m -8°C -8_3 1cm 99% 3mph 5mph 1016mB
18:00 851m -8°C -8_4 4cm 100% 4mph 5mph 1016mB
21:00 1058m -8°C -8_3 3cm 100% 3mph 3mph 1015mB
0:00 1035m -8°C -8_4 6cm 100% 4mph 5mph 1015mB
3:00 889m -8°C -8_12 2cm 100% 12mph 19mph 1018mB
6:00 702m -9°C -9_9 3cm 98% 9mph 17mph 1021mB
9:00 432m -11°C -11_5 1cm 69% 5mph 7mph 1023mB
12:00 157m -9°C -9_3 1cm 56% 3mph 3mph 1024mB
15:00 114m -13°C -13_3 0cm 3% 3mph 3mph 1027mB
18:00 894m -8°C -8_5 0cm 2% 5mph 8mph 1025mB
21:00 1172m -8°C -8_7 0cm 0% 7mph 8mph 1024mB
0:00 1100m -8°C -8_6 0cm 0% 6mph 7mph 1023mB
3:00 250m -12°C -12_3 0cm 0% 3mph 3mph 1026mB
6:00 160m -14°C -14_2 0cm 0% 2mph 3mph 1028mB
9:00 134m -14°C -14_2 0cm 0% 2mph 3mph 1028mB
12:00 104m -14°C -14_2 0cm 0% 2mph 2mph 1027mB
15:00 108m -14°C -14_2 0cm 0% 2mph 3mph 1027mB
18:00 1091m -7°C -7_4 0cm 4% 4mph 4mph 1025mB
21:00 1623m -7°C -7_3 0cm 0% 3mph 2mph 1022mB
0:00 1751m -7°C -7_0 0cm 9% 0mph 3mph 1020mB
3:00 1365m -5°C -5_3 0cm 81% 3mph 4mph 1021mB
6:00 1331m -6°C -6_4 0cm 90% 4mph 4mph 1021mB
9:00 1123m -6°C -6_5 1cm 80% 5mph 6mph 1020mB
12:00 922m -5°C -5_5 0cm 61% 5mph 6mph 1019mB
15:00 828m -8°C -8_6 0cm 42% 6mph 6mph 1019mB
18:00 1446m -4°C -4_5 1cm 56% 5mph 8mph 1015mB
21:00 1451m -4°C -4_11 1cm 79% 11mph 14mph 1012mB
0:00 1211m -6°C -6_9 3cm 90% 9mph 14mph 1011mB
3:00 597m -10°C -10_4 1cm 66% 4mph 5mph 1012mB
6:00 240m -12°C -12_2 1cm 34% 2mph 2mph 1014mB
9:00 189m -13°C -13_2 0cm 1% 2mph 3mph 1014mB
12:00 145m -12°C -12_1 0cm 1% 1mph 2mph 1014mB
15:00 109m -14°C -14_1 0cm 3% 1mph 2mph 1014mB
18:00 754m -9°C -9_10 0cm 16% 10mph 16mph 1013mB
21:00 997m -9°C -9_12 1cm 86% 12mph 16mph 1012mB
0:00 965m -9°C -9_11 1cm 85% 11mph 16mph 1013mB
3:00 580m -10°C -10_7 1cm 69% 7mph 11mph 1017mB
6:00 364m -11°C -11_6 0cm 41% 6mph 8mph 1020mB
9:00 198m -13°C -13_4 0cm 16% 4mph 4mph 1022mB
12:00 164m -11°C -11_3 0cm 8% 3mph 3mph 1024mB
15:00 159m -13°C -13_3 0cm 0% 3mph 3mph 1026mB
18:00 1133m -6°C -6_5 0cm 0% 5mph 6mph 1025mB
21:00 1732m -6°C -6_3 0cm 18% 3mph 3mph 1023mB
0:00 1887m -6°C -6_2 0cm 32% 2mph 5mph 1023mB
3:00 1500m -4°C -4_5 0cm 74% 5mph 5mph 1025mB
6:00 1393m -5°C -5_7 0cm 79% 7mph 8mph 1026mB
9:00 1217m -6°C -6_9 0cm 86% 9mph 10mph 1027mB
12:00 1227m -4°C -4_9 0cm 79% 9mph 10mph 1027mB
15:00 1224m -5°C -5_8 0cm 82% 8mph 9mph 1027mB
18:00 1965m -1°C -1_9 0cm 81% 9mph 18mph 1025mB
21:00 2075m -1°C -1_13 0cm 68% 13mph 23mph 1022mB
0:00 1866m -2°C -2_14 0cm 74% 14mph 27mph 1021mB
3:00 1484m -4°C -4_14 0cm 90% 14mph 30mph 1023mB
6:00 1451m -5°C -5_15 0cm 95% 15mph 33mph 1023mB
9:00 1569m -4°C -4_20 1cm 100% 20mph 36mph 1022mB
12:00 1614m -3°C -3_20 1cm 90% 20mph 37mph 1019mB
15:00 1667m -3°C -3_27 1cm 65% 27mph 44mph 1019mB
18:00 1672m -2°C -2_32 1cm 66% 32mph 49mph 1017mB
21:00 1706m -3°C -3_29 1cm 68% 29mph 46mph 1015mB
0:00 1615m -3°C -3_26 2cm 81% 26mph 48mph 1014mB
3:00 1484m -4°C -4_20 1cm 98% 20mph 43mph 1014mB
6:00 1208m -6°C -6_15 2cm 98% 15mph 26mph 1014mB
9:00 902m -8°C -8_10 1cm 60% 10mph 16mph 1015mB
12:00 530m -6°C -6_6 0cm 42% 6mph 9mph 1017mB
15:00 308m -10°C -10_5 0cm 1% 5mph 6mph 1020mB
18:00 1151m -6°C -6_4 0cm 1% 4mph 5mph 1019mB
21:00 1399m -6°C -6_8 1cm 16% 8mph 10mph 1017mB
0:00 1268m -6°C -6_10 1cm 45% 10mph 14mph 1017mB
3:00 645m -10°C -10_7 0cm 4% 7mph 9mph 1020mB
6:00 404m -11°C -11_5 0cm 3% 5mph 6mph 1022mB
9:00 344m -12°C -12_6 0cm 0% 6mph 7mph 1023mB
12:00 342m -11°C -11_6 0cm 0% 6mph 7mph 1023mB
15:00 434m -11°C -11_7 0cm 0% 7mph 8mph 1024mB
18:00 1380m -5°C -5_7 0cm 0% 7mph 11mph 1022mB
21:00 1688m -5°C -5_11 0cm 0% 11mph 16mph 1020mB
0:00 1508m -5°C -5_12 0cm 1% 12mph 17mph 1020mB
3:00 829m -8°C -8_6 0cm 2% 6mph 7mph 1023mB
6:00 626m -10°C -10_6 0cm 2% 6mph 7mph 1024mB
Afternoon 0mm 0 1535m -4°C -4_2 0cm 0% 2mph 4mph 1023mB
Morning 0mm 0.125 772m -9°C -9_6 1cm 92% 6mph 8mph 1025mB
Afternoon 0mm 0 1302m -6°C -6_7 0cm 100% 7mph 9mph 1024mB
Morning 0mm 0.0625 961m -8°C -8_8 1cm 100% 8mph 15mph 1022mB
Afternoon 0mm 0 1467m -5°C -5_10 0cm 98% 10mph 17mph 1021mB
Morning 0mm 0 896m -8°C -8_6 0cm 55% 6mph 9mph 1020mB
Afternoon 0mm 0 2228m 1°C 1_5 0cm 2% 5mph 8mph 1013mB
Morning 0mm 0.3125 770m -9°C -9_6 2cm 50% 6mph 9mph 1018mB
Afternoon 0mm 0 2029m -1°C -1_6 0cm 8% 6mph 10mph 1013mB
Morning 0mm 0 1342m -7°C -7_16 0cm 97% 16mph 34mph 1007mB
Afternoon 0mm 0.1875 1028m -5°C -5_10 2cm 100% 10mph 15mph 1009mB
Morning 0.015625mm 1.0625 539m -11°C -11_1 8cm 100% 1mph 1mph 1010mB

16 day outlook at a glance

Forecast issued: 2/17/2019 3:08:21 PM

Chat

Your comments and questions. In a resort? Let us know what it's like!


Characters left 250

For terms and conditions see Readers Comments on the Cookie and privacy policy page.